Home   Weather   Newquay Harbour   Past weeks
Flag for United Kingdom

Past Weather in Newquay Harbour, England, United Kingdom — Yesterday and Last 2 Weeks

Currently: 41 °F. Overcast. (Weather station: Culdrose, United Kingdom). See more current weather

Past Weather in Newquay Harbour — Graph

°F

Newquay Harbour Temperature Yesterday

Maximum temperature yesterday: 48 °F (at 12:20 pm)
Minimum temperature yesterday: 37 °F (at 11:20 pm)
Average temperature yesterday: 44 °F

High & Low Weather Summary for the Past Weeks

 TemperatureHumidityPressure
High55 °F (Nov 23, 12:50 pm)100% (Nov 19, 8:50 pm)30.36 "Hg (Nov 19, 8:50 pm)
Low37 °F (Nov 19, 8:20 am)58% (Nov 21, 12:50 pm)29.06 "Hg (Nov 23, 3:20 am)
Average49 °F81%29.86 "Hg
* Reported Nov 18 1:50 pm — Dec 3 1:20 pm, Newquay Harbour. Weather by CustomWeather, © 2022

Note: Actual official high and low records may vary slightly from our data, if they occured in-between our weather recording intervals... More about our weather records

Newquay Harbour Weather History for the Previous 24 Hours

Scroll right to see more
 ConditionsComfort  
Time TempWeatherWind HumidityBarometerVisibility
1:20 pm
Sat, Dec 3
41 °FOvercast.10 mph76%30.07 "HgN/A
12:50 pm41 °FOvercast.12 mph76%30.09 "HgN/A
12:20 pm43 °FOvercast.15 mph71%30.09 "HgN/A
11:50 am43 °FOvercast.15 mph71%30.09 "HgN/A
11:20 am41 °FOvercast.13 mph76%30.12 "HgN/A
10:50 am41 °FOvercast.13 mph76%30.12 "HgN/A
10:20 am41 °FOvercast.14 mph76%30.12 "HgN/A
9:50 am41 °FOvercast.13 mph76%30.12 "HgN/A
9:20 am39 °FPassing clouds.10 mph81%30.15 "HgN/A
8:50 am37 °FChilly.10 mph81%30.15 "HgN/A
8:20 am37 °FChilly.12 mph81%30.15 "HgN/A
7:50 am37 °FChilly.12 mph81%30.15 "HgN/A
7:20 am37 °FChilly.10 mph87%30.15 "HgN/A
6:50 am37 °FPassing clouds.9 mph87%30.15 "HgN/A
5:50 am39 °FChilly.13 mph81%30.15 "HgN/A
5:20 am39 °FPassing clouds.12 mph81%30.18 "HgN/A
4:50 am37 °FChilly.10 mph87%30.18 "HgN/A
4:20 am39 °FPassing clouds.13 mph81%30.18 "HgN/A
3:50 am39 °FChilly.14 mph87%30.18 "HgN/A
3:20 am39 °FPassing clouds.13 mph87%30.18 "HgN/A
2:50 am39 °FPassing clouds.13 mph87%30.18 "HgN/A
2:20 am39 °FChilly.12 mph81%30.18 "HgN/A
1:50 am39 °FChilly.12 mph87%30.18 "HgN/A
1:20 am37 °FChilly.9 mph87%30.18 "HgN/A
12:50 am37 °FChilly.12 mph93%30.21 "HgN/A
11:20 pm
Fri, Dec 2
37 °FChilly.6 mph87%30.21 "HgN/A
10:50 pm39 °FChilly.8 mph87%30.21 "HgN/A
10:20 pm39 °FPassing clouds.7 mph87%30.21 "HgN/A
9:50 pm39 °FOvercast.8 mph93%30.21 "HgN/A
9:20 pm39 °FPassing clouds.8 mph93%30.21 "HgN/A
8:50 pm39 °FChilly.7 mph87%30.21 "HgN/A
8:20 pm39 °FPassing clouds.7 mph87%30.21 "HgN/A
7:50 pm39 °FChilly.7 mph93%30.21 "HgN/A
7:20 pm41 °FQuite cool.8 mph87%30.21 "HgN/A
6:50 pm39 °FChilly.5 mph87%30.21 "HgN/A
6:20 pm39 °FChilly.5 mph93%30.21 "HgN/A
5:50 pm41 °FQuite cool.5 mph87%30.21 "HgN/A
4:50 pm45 °FPassing clouds.6 mph81%30.21 "HgN/A
4:20 pm46 °FOvercast.8 mph82%30.21 "HgN/A
3:50 pm46 °FPartly sunny.8 mph87%30.21 "HgN/A
3:20 pm46 °FPassing clouds.10 mph82%30.21 "HgN/A
2:50 pm46 °FPassing clouds.9 mph87%30.21 "HgN/A
2:20 pm46 °FCool.13 mph87%30.21 "HgN/A
Weather by CustomWeather, © 2022

See weather overview